Content
SEND FEEDBACK

Daily
Averages
Monthly
Summary
United Kingdom

NEWTOWNNARDS, NORTHERN IRELAND


Home > Europe > United Kingdom > Northern Ireland
Elevation: 112 feet     Latitude: 54 40N     Longitude: 005 35W

WEATHER
 
SELECT A DAY
Number of Records: 193,561;   Date Range: 7/1/96 - 10/23/14
 
SHARE

PRINT THIS DATA

[ ← Previous Day ]
WEATHER ALMANAC - OCTOBER 5, 2013
[ Next Day → ]
[ °C ]   °F
Weather ElementAverageHighLow
Temperature59.4 °F64.4 °F (3:20 pm)53.6 °F (6:50 am)
Dewpoint52.2 °F55.4 °F (4:50 pm)46.4 °F (6:50 am)
Humidity77.3 %88 % (8:20 am)68 % (1:20 pm)
Barometer30.06 in30.09 in (6:20 pm)29.98 in (6:50 am)
Wind Speed9.1 mph12.7 mph (5:50 pm)
Weather ElementAverage
Visibility6.2 mi
Wind DirectionSSW (196.6 °)

Weather ElementTotal
Precipitation---
Heating Degree Days6 (Base 65)
Growing Degree Days9 (Base 50)
Averaged from 29 records on October 5, 2013
WEATHER CONDITIONS BREAKOUT
WIND DIRECTION BREAKOUT
WEATHER BY HOUR - OCTOBER 5, 2013
[ °C ]   °F
Local TimeTemperatureDewpointHumidityBarometerVisibilityWind DirectionWind SpeedGust SpeedPrecipitationEventsConditions
6:50 AM53.6 °F46.4 °F77 %29.98 in6.2 miSSE (150°)5.8 mphScattered Clouds
7:20 AM53.6 °F48.2 °F82 %30.01 in6.2 miSouth (190°)5.8 mphScattered Clouds
7:50 AM53.6 °F48.2 °F82 %30.01 in6.2 miSSW (200°)5.8 mphScattered Clouds
8:20 AM53.6 °F50.0 °F88 %30.01 in6.2 miSSW (200°)6.9 mphScattered Clouds
8:50 AM53.6 °F50.0 °F88 %30.04 in6.2 miSouth (190°)6.9 mphScattered Clouds
9:20 AM53.6 °F50.0 °F88 %30.04 in6.2 miSSW (210°)8.1 mphPartly Cloudy
9:50 AM55.4 °F50.0 °F82 %30.06 in6.2 miSSW (210°)10.4 mphScattered Clouds
10:20 AM55.4 °F51.8 °F88 %30.06 in6.2 miSW (220°)9.2 mphScattered Clouds
10:50 AM57.2 °F51.8 °F82 %30.06 in6.2 miSSW (210°)9.2 mphScattered Clouds
11:20 AM57.2 °F51.8 °F82 %30.06 in6.2 miSSW (200°)9.2 mphScattered Clouds
11:50 AM59.0 °F51.8 °F77 %30.06 in6.2 miSSW (210°)9.2 mphScattered Clouds
12:20 PM60.8 °F51.8 °F72 %30.06 in6.2 miSSW (200°)10.4 mphPartly Cloudy
12:50 PM62.6 °F53.6 °F72 %30.06 in6.2 miSSW (210°)8.1 mphPartly Cloudy
1:20 PM62.6 °F51.8 °F68 %30.06 in6.2 miSSW (200°)10.4 mphPartly Cloudy
1:50 PM62.6 °F51.8 °F68 %30.06 in6.2 miSSW (200°)9.2 mphPartly Cloudy
2:20 PM62.6 °F51.8 °F68 %30.06 in6.2 miSW (220°)11.5 mphScattered Clouds
2:50 PM62.6 °F53.6 °F72 %30.06 in6.2 miSW (220°)11.5 mphScattered Clouds
3:20 PM64.4 °F53.6 °F68 %30.06 in6.2 miSSW (200°)10.4 mphScattered Clouds
3:50 PM64.4 °F53.6 °F68 %30.06 in6.2 miSSW (210°)10.4 mphScattered Clouds
4:20 PM64.4 °F53.6 °F68 %30.06 in6.2 miSSW (200°)10.4 mphMostly Cloudy
4:50 PM64.4 °F55.4 °F73 %30.06 in6.2 miSouth (180°)10.4 mphMostly Cloudy
5:20 PM64.4 °F55.4 °F73 %30.06 in6.2 miSSW (210°)11.5 mphMostly Cloudy
5:50 PM64.4 °F53.6 °F68 %30.06 in6.2 miSSW (200°)12.7 mphScattered Clouds
6:20 PM62.6 °F53.6 °F72 %30.09 in6.2 miSouth (180°)11.5 mphScattered Clouds
6:50 PM60.8 °F55.4 °F82 %30.09 in6.2 miSSE (160°)9.2 mphScattered Clouds
7:20 PM59.0 °F53.6 °F82 %30.09 in6.2 miSSE (160°)9.2 mphPartly Cloudy
7:50 PM59.0 °F53.6 °F82 %30.09 in6.2 miSouth (170°)5.8 mphPartly Cloudy
8:20 PM57.2 °F53.6 °F88 %30.09 in6.2 miSouth (180°)6.9 mphPartly Cloudy
8:50 PM59.0 °F53.6 °F82 %30.09 in6.2 miSSW (210°)6.9 mphPartly Cloudy
Hourly data recorded from EGAC, located miles away from Newtownnards, Northern Ireland







STORIES FROM OUR PARTNERS